Time,TemperatureF,DewpointF,PressureIn,WindDirection,WindDirectionDegrees,WindSpeedMPH,WindSpeedGustMPH,Humidity,HourlyPrecipIn,Conditions,Clouds,dailyrainin,SoftwareType,DateUTC
2013-07-27 00:02:00,59.3,59.0,29.94,ENE,71,0.0,2.0,98,0.00,,,0.00,weatherlink.com 1.10,2013-07-27 04:02:00,
2013-07-27 00:17:00,59.0,59.0,29.94,ENE,59,2.0,3.0,98,0.00,,,0.00,weatherlink.com 1.10,2013-07-27 04:17:00,
2013-07-27 00:32:00,59.1,59.0,29.94,East,90,0.0,3.0,98,0.00,,,0.00,weatherlink.com 1.10,2013-07-27 04:32:00,
2013-07-27 00:47:00,59.3,59.0,29.93,SE,134,1.0,5.0,99,0.00,,,0.00,weatherlink.com 1.10,2013-07-27 04:47:00,
2013-07-27 01:02:00,59.0,59.0,29.93,East,84,0.0,5.0,98,0.00,,,0.00,weatherlink.com 1.10,2013-07-27 05:02:00,
2013-07-27 01:17:00,58.8,58.0,29.94,East,95,0.0,6.0,98,0.00,,,0.00,weatherlink.com 1.10,2013-07-27 05:17:00,
2013-07-27 01:32:00,58.6,58.0,29.92,East,95,0.0,1.0,99,0.00,,,0.00,weatherlink.com 1.10,2013-07-27 05:32:00,
2013-07-27 01:47:00,58.6,58.0,29.91,ENE,69,1.0,3.0,99,0.00,,,0.00,weatherlink.com 1.10,2013-07-27 05:47:00,
2013-07-27 02:02:00,59.2,59.0,29.91,ENE,60,0.0,4.0,99,0.00,,,0.00,weatherlink.com 1.10,2013-07-27 06:02:00,
2013-07-27 02:17:00,59.4,59.0,29.91,NE,36,0.0,3.0,99,0.00,,,0.00,weatherlink.com 1.10,2013-07-27 06:17:00,
2013-07-27 02:32:00,59.5,59.0,29.90,East,81,0.0,2.0,99,0.00,,,0.00,weatherlink.com 1.10,2013-07-27 06:32:00,
2013-07-27 02:47:00,59.8,60.0,29.90,ENE,71,0.0,2.0,99,0.00,,,0.00,weatherlink.com 1.10,2013-07-27 06:47:00,
2013-07-27 03:02:00,59.8,60.0,29.89,ENE,63,0.0,3.0,99,0.00,,,0.00,weatherlink.com 1.10,2013-07-27 07:02:00,
2013-07-27 03:17:00,58.7,58.0,29.90,ENE,61,0.0,1.0,98,0.00,,,0.00,weatherlink.com 1.10,2013-07-27 07:17:00,
2013-07-27 03:32:00,57.6,57.0,29.89,ESE,107,0.0,1.0,98,0.00,,,0.00,weatherlink.com 1.10,2013-07-27 07:32:00,
2013-07-27 03:47:00,57.6,57.0,29.89,ESE,107,0.0,2.0,99,0.00,,,0.00,weatherlink.com 1.10,2013-07-27 07:47:00,
2013-07-27 04:02:00,57.8,58.0,29.88,ESE,107,0.0,1.0,99,0.00,,,0.00,weatherlink.com 1.10,2013-07-27 08:02:00,
2013-07-27 04:17:00,57.9,58.0,29.87,ESE,107,0.0,1.0,99,0.00,,,0.00,weatherlink.com 1.10,2013-07-27 08:17:00,
2013-07-27 04:32:00,58.1,58.0,29.87,East,93,0.0,5.0,99,0.00,,,0.00,weatherlink.com 1.10,2013-07-27 08:32:00,
2013-07-27 04:47:00,58.1,58.0,29.86,North,355,0.0,3.0,99,0.00,,,0.00,weatherlink.com 1.10,2013-07-27 08:47:00,
2013-07-27 05:02:00,58.2,58.0,29.87,ENE,62,0.0,1.0,99,0.00,,,0.00,weatherlink.com 1.10,2013-07-27 09:02:00,
2013-07-27 05:17:00,58.3,58.0,29.86,NE,55,0.0,5.0,99,0.00,,,0.00,weatherlink.com 1.10,2013-07-27 09:17:00,
2013-07-27 05:32:00,58.1,58.0,29.86,East,80,0.0,8.0,99,0.00,,,0.00,weatherlink.com 1.10,2013-07-27 09:32:00,
2013-07-27 05:47:00,58.1,58.0,29.86,ENE,77,0.0,1.0,99,0.00,,,0.00,weatherlink.com 1.10,2013-07-27 09:47:00,
2013-07-27 06:02:00,57.9,58.0,29.87,East,91,0.0,2.0,99,0.00,,,0.00,weatherlink.com 1.10,2013-07-27 10:02:00,
2013-07-27 06:17:00,57.9,58.0,29.87,ENE,78,0.0,2.0,99,0.00,,,0.00,weatherlink.com 1.10,2013-07-27 10:17:00,
2013-07-27 06:32:00,58.0,58.0,29.87,ENE,78,1.0,1.0,99,0.00,,,0.00,weatherlink.com 1.10,2013-07-27 10:32:00,
2013-07-27 06:47:00,58.2,58.0,29.88,East,95,1.0,4.0,99,0.00,,,0.00,weatherlink.com 1.10,2013-07-27 10:47:00,
2013-07-27 07:02:00,58.4,58.0,29.87,SE,133,1.0,1.0,99,0.00,,,0.00,weatherlink.com 1.10,2013-07-27 11:02:00,
2013-07-27 07:17:00,58.6,58.0,29.88,ENE,63,0.0,1.0,99,0.00,,,0.00,weatherlink.com 1.10,2013-07-27 11:17:00,
2013-07-27 07:32:00,58.8,59.0,29.87,East,101,1.0,7.0,99,0.00,,,0.00,weatherlink.com 1.10,2013-07-27 11:32:00,
2013-07-27 07:48:00,58.9,59.0,29.88,ENE,73,0.0,1.0,99,0.00,,,0.00,weatherlink.com 1.10,2013-07-27 11:48:00,
2013-07-27 08:02:00,59.0,59.0,29.87,NE,56,1.0,3.0,99,0.00,,,0.00,weatherlink.com 1.10,2013-07-27 12:02:00,
2013-07-27 08:17:00,59.2,59.0,29.87,ESE,106,0.0,5.0,99,0.00,,,0.00,weatherlink.com 1.10,2013-07-27 12:17:00,
2013-07-27 08:32:00,59.3,59.0,29.87,SSE,153,0.0,1.0,99,0.00,,,0.00,weatherlink.com 1.10,2013-07-27 12:32:00,
2013-07-27 08:47:00,59.6,59.0,29.87,SE,144,0.0,2.0,99,0.00,,,0.00,weatherlink.com 1.10,2013-07-27 12:47:00,
2013-07-27 09:02:00,59.5,59.0,29.87,ESE,109,0.0,2.0,99,0.00,,,0.00,weatherlink.com 1.10,2013-07-27 13:02:00,
2013-07-27 09:18:00,59.1,59.0,29.87,SE,129,0.0,8.0,99,0.00,,,0.00,weatherlink.com 1.10,2013-07-27 13:18:00,
2013-07-27 09:33:00,58.6,58.0,29.87,NE,44,0.0,9.0,99,0.00,,,0.00,weatherlink.com 1.10,2013-07-27 13:33:00,
2013-07-27 09:48:00,57.2,57.0,29.88,ENE,69,0.0,2.0,99,0.00,,,0.00,weatherlink.com 1.10,2013-07-27 13:48:00,
2013-07-27 10:03:00,56.7,57.0,29.87,ENE,67,0.0,2.0,99,0.00,,,0.00,weatherlink.com 1.10,2013-07-27 14:03:00,
2013-07-27 10:18:00,56.9,57.0,29.88,East,84,0.0,2.0,99,0.00,,,0.00,weatherlink.com 1.10,2013-07-27 14:18:00,
2013-07-27 10:33:00,57.4,57.0,29.88,East,100,0.0,4.0,99,0.00,,,0.00,weatherlink.com 1.10,2013-07-27 14:33:00,
2013-07-27 10:48:00,58.0,58.0,29.88,East,100,0.0,2.0,99,0.00,,,0.00,weatherlink.com 1.10,2013-07-27 14:48:00,
2013-07-27 11:03:00,58.6,58.0,29.88,East,94,1.0,4.0,99,0.00,,,0.00,weatherlink.com 1.10,2013-07-27 15:03:00,
2013-07-27 11:18:00,58.6,58.0,29.88,NW,318,0.0,5.0,99,0.00,,,0.00,weatherlink.com 1.10,2013-07-27 15:18:00,
2013-07-27 11:33:00,59.1,59.0,29.88,West,276,0.0,1.0,99,0.00,,,0.00,weatherlink.com 1.10,2013-07-27 15:33:00,
2013-07-27 11:48:00,59.6,59.0,29.88,WNW,287,2.0,3.0,99,0.00,,,0.00,weatherlink.com 1.10,2013-07-27 15:48:00,
2013-07-27 12:03:00,59.7,60.0,29.87,NW,304,1.0,6.0,99,0.00,,,0.00,weatherlink.com 1.10,2013-07-27 16:03:00,
2013-07-27 12:18:00,59.9,60.0,29.88,ENE,57,2.0,3.0,99,0.00,,,0.00,weatherlink.com 1.10,2013-07-27 16:18:00,
2013-07-27 12:33:00,60.0,60.0,29.88,WNW,302,1.0,7.0,99,0.00,,,0.00,weatherlink.com 1.10,2013-07-27 16:33:00,
2013-07-27 12:48:00,61.2,61.0,29.88,West,276,3.0,3.0,99,0.00,,,0.00,weatherlink.com 1.10,2013-07-27 16:48:00,
2013-07-27 13:03:00,62.1,62.0,29.87,SE,140,0.0,4.0,98,0.00,,,0.00,weatherlink.com 1.10,2013-07-27 17:03:00,
2013-07-27 13:18:00,62.4,61.0,29.86,NW,318,1.0,3.0,95,0.00,,,0.00,weatherlink.com 1.10,2013-07-27 17:18:00,
2013-07-27 13:33:00,62.5,60.0,29.85,WNW,296,3.0,6.0,91,0.00,,,0.00,weatherlink.com 1.10,2013-07-27 17:33:00,
2013-07-27 13:48:00,61.7,59.0,29.85,NW,321,0.0,2.0,91,0.00,,,0.00,weatherlink.com 1.10,2013-07-27 17:48:00,
2013-07-27 14:03:00,62.5,61.0,29.85,SSW,192,0.0,4.0,93,0.00,,,0.00,weatherlink.com 1.10,2013-07-27 18:03:00,
2013-07-27 14:18:00,63.5,61.0,29.84,ENE,63,0.0,4.0,90,0.00,,,0.00,weatherlink.com 1.10,2013-07-27 18:18:00,
2013-07-27 14:33:00,64.0,61.0,29.84,NW,306,1.0,3.0,89,0.00,,,0.00,weatherlink.com 1.10,2013-07-27 18:33:00,
2013-07-27 14:48:00,63.9,60.0,29.84,ESE,107,0.0,5.0,87,0.00,,,0.00,weatherlink.com 1.10,2013-07-27 18:48:00,
2013-07-27 15:03:00,64.6,62.0,29.84,WNW,298,0.0,3.0,90,0.00,,,0.00,weatherlink.com 1.10,2013-07-27 19:03:00,
2013-07-27 15:18:00,64.4,62.0,29.84,SE,137,0.0,2.0,90,0.00,,,0.00,weatherlink.com 1.10,2013-07-27 19:18:00,
2013-07-27 15:33:00,64.4,61.0,29.83,WNW,294,0.0,4.0,87,0.00,,,0.00,weatherlink.com 1.10,2013-07-27 19:33:00,
2013-07-27 15:48:00,64.3,60.0,29.83,WNW,290,2.0,3.0,87,0.00,,,0.00,weatherlink.com 1.10,2013-07-27 19:48:00,
2013-07-27 16:03:00,64.5,60.0,29.83,SSE,158,0.0,4.0,84,0.00,,,0.00,weatherlink.com 1.10,2013-07-27 20:03:00,
2013-07-27 16:18:00,65.7,60.0,29.83,WNW,298,0.0,3.0,82,0.00,,,0.00,weatherlink.com 1.10,2013-07-27 20:18:00,
2013-07-27 16:33:00,65.9,60.0,29.82,ESE,121,0.0,4.0,80,0.00,,,0.00,weatherlink.com 1.10,2013-07-27 20:33:00,
2013-07-27 16:48:00,66.5,62.0,29.82,NNE,30,0.0,3.0,86,0.00,,,0.00,weatherlink.com 1.10,2013-07-27 20:48:00,
2013-07-27 17:03:00,66.2,62.0,29.83,East,86,0.0,2.0,87,0.00,,,0.00,weatherlink.com 1.10,2013-07-27 21:03:00,
2013-07-27 17:18:00,65.6,62.0,29.82,East,86,0.0,2.0,87,0.00,,,0.00,weatherlink.com 1.10,2013-07-27 21:18:00,
2013-07-27 17:33:00,64.7,62.0,29.82,ESE,111,0.0,3.0,90,0.00,,,0.00,weatherlink.com 1.10,2013-07-27 21:33:00,
2013-07-27 17:48:00,64.2,62.0,29.82,ESE,111,0.0,1.0,92,0.00,,,0.00,weatherlink.com 1.10,2013-07-27 21:48:00,
2013-07-27 18:03:00,63.9,62.0,29.82,ESE,111,0.0,0.0,93,0.00,,,0.00,weatherlink.com 1.10,2013-07-27 22:03:00,
2013-07-27 18:18:00,63.3,61.0,29.82,SE,126,0.0,2.0,93,0.00,,,0.00,weatherlink.com 1.10,2013-07-27 22:18:00,
2013-07-27 18:33:00,62.1,60.0,29.82,SSE,155,0.0,4.0,94,0.00,,,0.00,weatherlink.com 1.10,2013-07-27 22:33:00,
2013-07-27 18:48:00,60.9,60.0,29.83,East,85,0.0,1.0,95,0.00,,,0.00,weatherlink.com 1.10,2013-07-27 22:48:00,
2013-07-27 19:03:00,60.4,59.0,29.83,East,85,0.0,1.0,96,0.00,,,0.00,weatherlink.com 1.10,2013-07-27 23:03:00,
2013-07-27 19:18:00,60.2,59.0,29.83,East,94,0.0,1.0,96,0.00,,,0.00,weatherlink.com 1.10,2013-07-27 23:18:00,
2013-07-27 19:33:00,60.3,60.0,29.83,ENE,73,0.0,2.0,97,0.00,,,0.00,weatherlink.com 1.10,2013-07-27 23:33:00,
2013-07-27 19:48:00,60.1,59.0,29.84,SE,140,1.0,2.0,97,0.00,,,0.00,weatherlink.com 1.10,2013-07-27 23:48:00,
2013-07-27 20:03:00,60.0,59.0,29.83,ESE,102,0.0,2.0,97,0.00,,,0.00,weatherlink.com 1.10,2013-07-28 00:03:00,
2013-07-27 20:18:00,59.9,59.0,29.84,ESE,113,0.0,7.0,98,0.00,,,0.00,weatherlink.com 1.10,2013-07-28 00:18:00,
2013-07-27 20:33:00,59.5,59.0,29.84,SE,126,0.0,5.0,98,0.00,,,0.00,weatherlink.com 1.10,2013-07-28 00:33:00,
2013-07-27 20:48:00,58.9,58.0,29.85,ESE,116,0.0,4.0,98,0.00,,,0.00,weatherlink.com 1.10,2013-07-28 00:48:00,
2013-07-27 21:03:00,58.6,58.0,29.85,East,98,0.0,4.0,98,0.00,,,0.00,weatherlink.com 1.10,2013-07-28 01:03:00,
2013-07-27 21:18:00,58.3,58.0,29.85,ESE,113,1.0,3.0,98,0.00,,,0.00,weatherlink.com 1.10,2013-07-28 01:18:00,
2013-07-27 21:33:00,58.4,58.0,29.85,ESE,117,0.0,4.0,98,0.00,,,0.00,weatherlink.com 1.10,2013-07-28 01:33:00,
2013-07-27 21:48:00,58.4,58.0,29.85,East,92,0.0,2.0,98,0.00,,,0.00,weatherlink.com 1.10,2013-07-28 01:48:00,
2013-07-27 22:03:00,58.6,58.0,29.86,ESE,121,0.0,3.0,99,0.00,,,0.00,weatherlink.com 1.10,2013-07-28 02:03:00,
2013-07-27 22:18:00,58.6,58.0,29.86,ESE,121,0.0,1.0,99,0.00,,,0.00,weatherlink.com 1.10,2013-07-28 02:18:00,
2013-07-27 22:33:00,58.6,58.0,29.86,ENE,74,0.0,2.0,99,0.00,,,0.00,weatherlink.com 1.10,2013-07-28 02:33:00,
2013-07-27 22:48:00,58.3,58.0,29.85,ENE,76,0.0,2.0,99,0.00,,,0.00,weatherlink.com 1.10,2013-07-28 02:48:00,
2013-07-27 23:03:00,58.0,58.0,29.85,NE,55,0.0,2.0,99,0.00,,,0.00,weatherlink.com 1.10,2013-07-28 03:03:00,
2013-07-27 23:18:00,57.8,58.0,29.85,NNE,32,0.0,4.0,99,0.00,,,0.00,weatherlink.com 1.10,2013-07-28 03:18:00,
2013-07-27 23:33:00,57.6,57.0,29.84,East,82,2.0,2.0,99,0.00,,,0.00,weatherlink.com 1.10,2013-07-28 03:33:00,
2013-07-27 23:48:00,57.7,58.0,29.84,ESE,111,0.0,3.0,99,0.00,,,0.00,weatherlink.com 1.10,2013-07-28 03:48:00,